2024-247P (62390 NORAD) Tracking and Keplerian Element Data

This shows tracking and keplerian element data for the satellite.

Feedback or suggestion? Click here.




ElementValue
Catalog62390
Name2024-247P
Epoch Orbit245
Epoch Day5.72872
Epoch Year2025
RAAN278.8774
Inclination44.9991
Eccentricity0.0001451
Argument of Perigee324.2414
Mean Anonmoly35.8368
Mean Motion15.17317663
Decay Rate0.00016217
L11 62390U 24247P 25005.72872000 .00016217 00000+0 81076-3 0 9998
L22 62390 44.9991 278.8774 0001451 324.2414 35.8368 15.17317663 2456



Live tracking and technical data element details for 2024-247P (NORAD 62390). 2024-247P can be tracked NOW for your location showing map with azimuth and elevation plus other details from your city location.







IsCatalogInMostPopularTable: catalog: 62390, numindb: 13
Update: records affected: 1



GetName: 62390 2024-247P

Hit Count: updated at: Sun, 18 May 2025 23:38:31 GMT